When you browse on this site, cookies collect data to enhance your experience and personalize the content and advertising you see.
Visit our Privacy Policy to learn more. By continuing to use the site, you agree to this use of cookies and data.
  • In United Kingdom
  • List of Countries
  • For 7 days
  • Water Temperature
  • Satellite Maps
  • Weather Map
  • Weather Widgets
  • user-avatar
    Login

    Hourly Weather Lisburn

    Today, 27 June, Thursday

    Time Temperature Precipitation Wind Pressure Humidity
    00:00 +10°C° 0 mm 2 mps 770 mmHg 89%
    01:00 +10°C° 0 mm 2 mps 770 mmHg 89%
    02:00 +10°C° 0 mm 2 mps 770 mmHg 89%
    03:00 +10°C° 0 mm 2 mps 770 mmHg 89%
    04:00 +12°C° 0 mm 2 mps 769 mmHg 89%
    05:00 +13°C° 0 mm 2 mps 769 mmHg 89%
    06:00 +14°C° 0 mm 2 mps 769 mmHg 89%
    07:00 +15°C° 0 mm 2 mps 769 mmHg 85%
    08:00 +17°C° 0 mm 3 mps 769 mmHg 81%
    09:00 +18°C° 0 mm 3 mps 770 mmHg 77%
    10:00 +19°C° 0 mm 3 mps 769 mmHg 74%
    11:00 +19°C° 0 mm 3 mps 769 mmHg 70%
    12:00 +20°C° 0 mm 3 mps 769 mmHg 67%
    13:00 +20°C° 0 mm 3 mps 769 mmHg 66%
    14:00 +20°C° 0 mm 3 mps 768 mmHg 66%
    15:00 +20°C° 0 mm 4 mps 768 mmHg 66%
    16:00 +20°C° 0 mm 4 mps 767 mmHg 69%
    17:00 +20°C° 0 mm 3 mps 767 mmHg 72%
    18:00 +19°C° 0 mm 3 mps 767 mmHg 75%
    19:00 +18°C° 0 mm 3 mps 767 mmHg 76%
    20:00 +17°C° 0 mm 3 mps 767 mmHg 78%
    21:00 +14°C° 0 mm 3 mps 767 mmHg 80%
    22:00 +15°C° 0 mm 4 mps 767 mmHg 80%
    23:00 +15°C° 0 mm 4 mps 767 mmHg 81%

    Tomorrow, 28 June, Friday

    Time Temperature Precipitation Wind Pressure Humidity
    00:00 +15°C° 0 mm 5 mps 767 mmHg 81%
    01:00 +14°C° 0 mm 5 mps 766 mmHg 81%
    02:00 +14°C° 0 mm 5 mps 766 mmHg 81%
    03:00 +13°C° 0 mm 5 mps 766 mmHg 81%
    04:00 +13°C° 0 mm 5 mps 765 mmHg 82%
    05:00 +13°C° 0 mm 5 mps 765 mmHg 82%
    06:00 +14°C° 0 mm 6 mps 764 mmHg 83%
    07:00 +14°C° 0 mm 6 mps 764 mmHg 81%
    08:00 +15°C° 0 mm 6 mps 764 mmHg 78%
    09:00 +16°C° 0 mm 6 mps 764 mmHg 76%
    10:00 +17°C° 0 mm 6 mps 764 mmHg 75%
    11:00 +17°C° 0 mm 6 mps 763 mmHg 73%
    12:00 +19°C° 0 mm 6 mps 763 mmHg 72%
    13:00 +19°C° 0 mm 6 mps 762 mmHg 72%
    14:00 +20°C° 0 mm 6 mps 762 mmHg 72%
    15:00 +20°C° 0 mm 6 mps 762 mmHg 73%
    16:00 +20°C° 0 mm 6 mps 761 mmHg 75%
    17:00 +20°C° 0 mm 5 mps 761 mmHg 77%
    18:00 +20°C° 0 mm 4 mps 760 mmHg 79%
    19:00 +19°C° 0 mm 4 mps 760 mmHg 83%
    20:00 +18°C° 0 mm 4 mps 760 mmHg 86%
    21:00 +17°C° 0 mm 3 mps 759 mmHg 90%
    22:00 +15°C° 0 mm 4 mps 759 mmHg 92%
    23:00 +15°C° 0 mm 4 mps 759 mmHg 94%

    Day after tomorrow, 29 June, Saturday

    Time Temperature Precipitation Wind Pressure Humidity
    00:00 +15°C° 0 mm 4 mps 758 mmHg 95%
    01:00 +15°C° 0 mm 4 mps 758 mmHg 93%
    02:00 +17°C° 0 mm 4 mps 758 mmHg 90%
    03:00 +17°C° 0 mm 4 mps 757 mmHg 88%
    04:00 +17°C° 0 mm 4 mps 757 mmHg 89%
    05:00 +17°C° 0 mm 3 mps 757 mmHg 91%
    06:00 +17°C° 0 mm 3 mps 756 mmHg 92%
    07:00 +18°C° 0 mm 3 mps 756 mmHg 89%
    08:00 +19°C° 0 mm 3 mps 756 mmHg 86%
    09:00 +20°C° 0 mm 3 mps 756 mmHg 83%
    10:00 +20°C° 0 mm 3 mps 756 mmHg 79%
    11:00 +21°C° 0 mm 3 mps 756 mmHg 75%
    12:00 +22°C° 0 mm 4 mps 756 mmHg 71%
    13:00 +22°C° 0 mm 4 mps 755 mmHg 71%
    14:00 +22°C° 0 mm 4 mps 755 mmHg 72%
    15:00 +22°C° 0 mm 4 mps 755 mmHg 72%
    16:00 +21°C° 0.6 mm 4 mps 754 mmHg 77%
    17:00 +20°C° 0.6 mm 4 mps 754 mmHg 82%
    18:00 +19°C° 0.6 mm 4 mps 754 mmHg 87%
    19:00 +18°C° 0.5 mm 4 mps 754 mmHg 89%
    20:00 +17°C° 0.5 mm 4 mps 754 mmHg 92%
    21:00 +15°C° 0.5 mm 4 mps 754 mmHg 94%
    22:00 +14°C° 0 mm 4 mps 754 mmHg 94%
    23:00 +13°C° 0 mm 4 mps 754 mmHg 94%

    30 June, Sunday

    Time Temperature Precipitation Wind Pressure Humidity
    00:00 +13°C° 0 mm 5 mps 754 mmHg 94%
    01:00 +12°C° 0 mm 4 mps 754 mmHg 95%
    02:00 +12°C° 0 mm 4 mps 754 mmHg 95%
    03:00 +12°C° 0 mm 4 mps 754 mmHg 96%
    04:00 +12°C° 0 mm 4 mps 754 mmHg 95%
    05:00 +13°C° 0 mm 4 mps 754 mmHg 94%
    06:00 +13°C° 0 mm 4 mps 754 mmHg 94%
    07:00 +14°C° 0 mm 5 mps 755 mmHg 90%
    08:00 +15°C° 0 mm 6 mps 755 mmHg 87%
    09:00 +15°C° 0 mm 7 mps 755 mmHg 84%
    10:00 +16°C° 0.2 mm 6 mps 755 mmHg 81%
    11:00 +17°C° 0.2 mm 6 mps 756 mmHg 78%
    12:00 +19°C° 0.2 mm 6 mps 756 mmHg 75%
    13:00 +17°C° 0.4 mm 6 mps 756 mmHg 77%
    14:00 +17°C° 0.4 mm 6 mps 756 mmHg 79%
    15:00 +17°C° 0.4 mm 6 mps 756 mmHg 81%
    16:00 +16°C° 0.1 mm 6 mps 756 mmHg 80%
    17:00 +15°C° 0.1 mm 6 mps 756 mmHg 78%
    18:00 +15°C° 0.1 mm 6 mps 756 mmHg 76%
    19:00 +14°C° 0 mm 6 mps 757 mmHg 77%
    20:00 +13°C° 0 mm 5 mps 757 mmHg 78%
    21:00 +12°C° 0 mm 5 mps 757 mmHg 78%
    22:00 +12°C° 0 mm 5 mps 757 mmHg 77%
    23:00 +12°C° 0 mm 5 mps 757 mmHg 77%

    1 July, Monday

    Time Temperature Precipitation Wind Pressure Humidity
    00:00 +11°C° 0 mm 6 mps 757 mmHg 76%
    01:00 +10°C° 0 mm 6 mps 757 mmHg 79%
    02:00 +10°C° 0 mm 6 mps 757 mmHg 82%
    03:00 +10°C° 0 mm 6 mps 757 mmHg 85%
    04:00 +10°C° 0 mm 6 mps 757 mmHg 84%
    05:00 +10°C° 0 mm 6 mps 758 mmHg 84%
    06:00 +11°C° 0 mm 6 mps 758 mmHg 83%
    07:00 +11°C° 0 mm 6 mps 758 mmHg 83%
    08:00 +13°C° 0 mm 6 mps 758 mmHg 83%
    09:00 +14°C° 0 mm 6 mps 758 mmHg 83%
    10:00 +14°C° 0 mm 6 mps 759 mmHg 82%
    11:00 +14°C° 0 mm 7 mps 759 mmHg 80%
    12:00 +14°C° 0 mm 7 mps 760 mmHg 79%
    13:00 +14°C° 0.2 mm 7 mps 760 mmHg 81%
    14:00 +14°C° 0.2 mm 7 mps 761 mmHg 83%
    15:00 +14°C° 0.2 mm 7 mps 761 mmHg 85%
    16:00 +14°C° 0 mm 7 mps 762 mmHg 82%
    17:00 +14°C° 0 mm 6 mps 762 mmHg 79%
    18:00 +13°C° 0 mm 6 mps 763 mmHg 76%
    19:00 +12°C° 0 mm 5 mps 763 mmHg 80%
    20:00 +11°C° 0 mm 4 mps 764 mmHg 85%
    21:00 +8°C° 0 mm 4 mps 764 mmHg 89%
    22:00 +9°C° 0 mm 3 mps 765 mmHg 91%
    23:00 +8°C° 0 mm 3 mps 765 mmHg 93%

    2 July, Tuesday

    Time Temperature Precipitation Wind Pressure Humidity
    00:00 +7°C° 0 mm 3 mps 765 mmHg 95%
    01:00 +7°C° 0 mm 3 mps 765 mmHg 95%
    02:00 +7°C° 0 mm 2 mps 765 mmHg 95%
    03:00 +7°C° 0 mm 2 mps 765 mmHg 95%
    04:00 +8°C° 0 mm 2 mps 765 mmHg 94%
    05:00 +8°C° 0 mm 2 mps 766 mmHg 94%
    06:00 +9°C° 0 mm 2 mps 766 mmHg 93%
    07:00 +12°C° 0 mm 2 mps 766 mmHg 87%
    08:00 +12°C° 0 mm 3 mps 766 mmHg 81%
    09:00 +14°C° 0 mm 3 mps 766 mmHg 75%
    10:00 +14°C° 0 mm 3 mps 766 mmHg 73%
    11:00 +14°C° 0 mm 3 mps 767 mmHg 71%
    12:00 +14°C° 0 mm 3 mps 767 mmHg 70%
    13:00 +15°C° 0 mm 2 mps 767 mmHg 69%
    14:00 +16°C° 0 mm 2 mps 767 mmHg 69%
    15:00 +16°C° 0 mm 2 mps 767 mmHg 69%
    16:00 +16°C° 0 mm 2 mps 767 mmHg 71%
    17:00 +15°C° 0 mm 2 mps 767 mmHg 73%
    18:00 +15°C° 0 mm 2 mps 767 mmHg 75%
    19:00 +14°C° 0 mm 2 mps 767 mmHg 78%
    20:00 +13°C° 0 mm 2 mps 767 mmHg 80%
    21:00 +10°C° 0 mm 2 mps 767 mmHg 83%
    22:00 +9°C° 0 mm 2 mps 767 mmHg 86%
    23:00 +8°C° 0 mm 2 mps 767 mmHg 88%
    Show more